Regional Weather Roundup
Issued by NWS

Home | Current Version | Previous Version | Graphics & Text | Print | Product List | Glossary On
Versions: 1 2 3 4 5 6 7 8 9 10 11 12 13 14 15 16 17 18 19 20 21 22 23 24 25 26 27 28 29 30 31 32 33 34 35 36 37 38 39 40 41 42 43 44 45 46 47 48 49 50
000
ASUS43 KOAX 190910
RWRNE

WEATHER ROUNDUP FOR NEBRASKA
NATIONAL WEATHER SERVICE OMAHA NE
400 AM CDT TUE SEP 19 2017

NOTES: SATELLITE DATA IS BEING USED TO AUGMENT CLOUD COVER ABOVE
       12000 FEET.
       "FAIR" INDICATES FEW OR NO CLOUDS BELOW 12,000 FEET WITH NO
       SIGNIFICANT WEATHER AND/OR OBSTRUCTIONS TO VISIBILITY.


NEZ001>004-019>022-054>056-191000-
NEBRASKA PANHANDLE

CITY           SKY/WX    TMP DP  RH WIND       PRES   REMARKS
SCOTTSBLUFF    CLEAR     65  46  50 S20       29.71F
ALLIANCE       CLEAR     57  51  80 S12       29.72F
CHADRON        CLEAR     66  47  50 S29G38    29.64F
GORDON         FAIR      63  54  73 S14       29.71F
KIMBALL        CLOUDY    54  45  72 S9        29.76F
SIDNEY         CLOUDY    59  48  67 S10       29.75F
$$

NEZ057>060-069>072-079>082-191000-
SOUTHWEST NEBRASKA

CITY           SKY/WX    TMP DP  RH WIND       PRES   REMARKS
NORTH PLATTE   CLEAR     58  57  97 E8        29.75F FOG
IMPERIAL       CLOUDY    61  55  81 SE13      29.74F
LEXINGTON      CLEAR     61  58  91 SE6       29.77F
MCCOOK         CLEAR     62  58  86 CALM      29.76F
OGALLALA       CLOUDY    65  56  72 SE12      29.73F
$$

NEZ005>010-023>029-035>040-094-191000-
NORTH CENTRAL NEBRASKA

CITY           SKY/WX    TMP DP  RH WIND       PRES   REMARKS
VALENTINE      PTCLDY    66  59  78 S16       29.72F
AINSWORTH      PTCLDY    61  60  97 S13       29.75F
BROKEN BOW     PTCLDY    61  59  93 SE7       29.77F
O`NEILL        CLEAR     61  61 100 SE6       29.78F FOG
ORD            FOG       59  58  96 CALM      29.77F VSB 1/4
THEDFORD       PTCLDY    64  60  87 S12G18    29.76F
$$

NEZ041-046>049-061>064-073>077-083>087-191000-
SOUTH CENTRAL NEBRASKA

CITY           SKY/WX    TMP DP  RH WIND       PRES   REMARKS
GRAND ISLAND   CLEAR     64  64 100 S12       29.79F
AURORA         CLEAR     61  61 100 SE5       29.79F
HASTINGS       CLEAR     65  62  90 S8        29.80F
HEBRON         CLEAR     68  64  88 S7        29.81F
HOLDREGE       CLEAR     63  60  90 S6        29.78F
KEARNEY        CLEAR     61  60  97 S7        29.79F
YORK           CLEAR     64  64 100 S8        29.81F
$$

NEZ011>018-030>034-042>045-191000-
NORTHEAST NEBRASKA

CITY           SKY/WX    TMP DP  RH WIND       PRES   REMARKS
NORFOLK        PTCLDY    62  62 100 SE8       29.79F FOG
ALBION         FOG       62  62  99 SE5       29.79F VSB 1/2
BLAIR          CLOUDY    67  66  97 SE9       29.84F FOG
COLUMBUS       CLEAR     65  64  97 SE6       29.80F
FREMONT        CLOUDY    67  66  99 SE9       29.83F FOG
TEKAMAH        CLOUDY    67  65  93 SE10      29.83F FOG
WAYNE          CLOUDY    66  64  91 S14       29.81F FOG
$$

NEZ050>053-065>068-078-088>093-191000-
SOUTHEAST NEBRASKA

CITY           SKY/WX    TMP DP  RH WIND       PRES   REMARKS
LINCOLN        CLEAR     66  65  96 SE7       29.82F
OMAHA EPPLEY   CLOUDY    68  64  87 SE12      29.84F
BEATRICE       CLEAR     68  66  92 SE7       29.82F
FALLS CITY     CLEAR     66  65  96 SE6       29.85F FOG
NEBRASKA CITY  CLOUDY    67  67 100 S7        29.85F FOG
PLATTSMOUTH    CLOUDY    66  66 100 SE10G16   29.85F FOG
$$

NEZ044-045-051>053-067-191000-
OMAHA AREA

CITY           SKY/WX    TMP DP  RH WIND       PRES   REMARKS
OMAHA EPPLEY   CLOUDY    68  64  87 SE12      29.84F
BLAIR          CLOUDY    67  66  97 SE9       29.84F FOG
FREMONT        CLOUDY    67  66  99 SE9       29.83F FOG
MILLARD        CLOUDY    68  67  96 SE10      29.84F FOG
OFFUTT AFB     MOCLDY    67  65  95 SE9       29.84F
PLATTSMOUTH    CLOUDY    66  66 100 SE10G16   29.85F FOG
WAHOO          CLOUDY    66  66  98 SE8       29.82F FOG
$$



USA.gov is the U.S. government's official web portal to all federal, state and local government web resources and services.